Regional Weather Roundup
Issued by NWS

Home | Current Version | Previous Version | Text Only | Print | Product List | Glossary Off
Versions: 1 2 3 4 5 6 7 8 9 10 11 12 13 14 15 16 17 18 19 20 21 22 23 24 25 26 27 28 29 30 31 32 33 34 35 36 37 38 39 40 41 42 43 44 45 46 47 48 49 50

000
ASUS43 KDTX 280701
RWRMI
MICHIGAN HOURLY REGIONAL WEATHER ROUNDUP
NATIONAL WEATHER SERVICE DETROIT/PONTIAC MI
300 AM EDT THU MAY 28 2015

NOTE: "FAIR" INDICATES FEW OR NO CLOUDS BELOW 12,000 FEET WITH NO
SIGNIFICANT WEATHER AND/OR OBSTRUCTION TO VISIBILITY.

MIZ047>049-052>055-059>063-066>070-074>076-081>083-280800-
SOUTHEAST LOWER MICHIGAN

CITY           SKY/WX    TMP DP  RH WIND       PRES   REMARKS
ADRIAN         CLEAR     58  56  93 CALM      30.17R
ANN ARBOR      FOG       51  51 100 CALM      30.15R VSB 3/4
DETROIT CITY   CLEAR     60  55  83 CALM      30.15R
DETROIT        PTCLDY    61  56  83 CALM      30.15R
FLINT          CLEAR     56  54  93 CALM      30.15R

CITY           SKY/WX    TMP DP  RH WIND       PRES   REMARKS
JACKSON        CLEAR     55  54  96 S3        30.16R
LANSING        CLEAR     56  53  90 CALM      30.16R
LAPEER         NOT AVBL
MT. CLEMENS    CLEAR     58  56  92 W2        30.12R
PONTIAC        CLEAR     59  56  89 NW3       30.14R
PORT HOPE        N/A     60  52  74 NW8       30.11R
TRI CITIES     PTCLDY    62  55  77 CALM      30.15R
MIDLAND        NOT AVBL
$$
MIZ043>046-050>051-056>058-064>065-071>073-077>080-280800-
SOUTHWEST LOWER MICHIGAN

CITY           SKY/WX    TMP DP  RH WIND       PRES   REMARKS
BATTLE CREEK   CLEAR     56  53  90 SW3       30.17R
BENTON HARBOR  CLEAR     52  52 100 CALM      30.16R FOG
HOLLAND        CLEAR     54  52  93 S5        30.16R
GRAND RAPIDS   CLEAR     55  54  96 S5        30.15R
KALAMAZOO      CLEAR     54  53  97 S3        30.16R FOG
MUSKEGON       PTCLDY    53  51  93 S5        30.15R
$$
MIZ016>042-280800-
NORTHERN LOWER MICHIGAN

CITY           SKY/WX    TMP DP  RH WIND       PRES   REMARKS
ALPENA         CLEAR     50  48  93 SE3       30.10R
GAYLORD        CLOUDY    56  55  97 CALM      30.10R
HOUGHTON LAKE  MOCLDY    60  54  80 W6        30.13R
MANISTEE       PTCLDY    57  52  82 E3        30.14R
PELLSTON       MOCLDY    50  49  96 CALM      30.08R
TRAVERSE CITY  PTCLDY    57  55  93 CALM      30.08R
$$
MIZ007>008-015-280800-
EASTERN UPPER MICHIGAN

CITY           SKY/WX    TMP DP  RH WIND       PRES   REMARKS
KINROSS        PTCLDY    52  52 100 CALM      30.08R
S. S. MARIE    PTCLDY    50  48  93 CALM      30.07S FOG
$$
MIZ004>006-011>014-085-280800-
CENTRAL UPPER MICHIGAN

CITY           SKY/WX    TMP DP  RH WIND       PRES   REMARKS
ESCANABA       MOCLDY    52  48  87 CALM      30.07R VSB 1/2
MENOMINEE      CLEAR     57  54  88 SW7       30.07R
$$
MIZ001>003-009>011-084-280800-
WESTERN UPPER MICHIGAN

CITY           SKY/WX    TMP DP  RH WIND       PRES   REMARKS
IRON MOUNTAIN  CLEAR     51  49  92 N3        30.08R
HOUGHTON       CLEAR     43  40  89 E3        30.11R
COPPER HARBOR    N/A     44  39  82 CALM      30.14R
IRONWOOD       CLEAR     52  52 100 CALM      30.05R
$$

ABBREVIATIONS USED IN REMARKS
   TC - TEMPERATURE IN CELSIUS
  WCI - WIND CHILL INDEX
   HX - HEAT INDEX
  VSB - VISIBILITY




USA.gov is the U.S. government's official web portal to all federal, state and local government web resources and services.